This demonstration page uses our WeatherBlox Daily Observations layout. Learn more.

Left ArrowRight Arrow

44.8408, -93.29828

Hourly Observations for March 27, 2017

Temp ( °F °C ) Dew Point ( °F °C ) Humidity (%) Winds ( mph kmh ) Pressure ( in mb ) Visibility ( mi km ) Precip ( " mm )
12:53 am 00:53 Cloudy 39 3.9 35 1.7 86 86 NNE 5 7 29.96 1014 10 16 0.00 0.00
12:58 am 00:58 Cloudy 39 4 36 2 87 87 NNE 5 7 30.00 1016 10 16 0.00 0.00
1:35 am 01:35 Cloudy 39 3.9 35 1.7 86 86 Calm 30.00 1016 10 16 0.00 0.00
1:53 am 01:53 Cloudy 39 3.9 34 1.1 82 82 Calm 29.95 1014 10 16 0.00 0.00
2:12 am 02:12 Cloudy 39 4 34 1 81 81 Calm 30.00 1016 10 16 0.00 0.00
2:53 am 02:53 Cloudy 39 3.9 34 1.1 82 82 NNW 3 6 29.95 1014 10 16 0.00 0.00
3:53 am 03:53 Cloudy 38 3.3 33 0.6 83 83 N 9 15 29.96 1014 10 16 0.00 0.00
4:35 am 04:35 Cloudy with Mist and Fog 37 2.8 34 1.1 89 89 N 7 11 30.00 1016 6 10 0.00 0.00
4:53 am 04:53 Cloudy with Drizzle 38 3.3 34 1.1 86 86 N 6 9 29.98 1015 7 11 0.00 0.03
5:53 am 05:53 Cloudy 38 3.3 34 1.1 86 86 N 7 11 29.97 1015 10 16 0.00 0.03
6:53 am 06:53 Cloudy 38 3.3 33 0.6 83 83 NNE 5 7 29.98 1015 10 16 0.00 0.00
7:53 am 07:53 Mostly Cloudy 39 3.9 33 0.6 79 79 NNW 5 7 29.99 1016 10 16 0.00 0.00
8:03 am 08:03 Cloudy 39 4 34 1 81 81 N 6 9 30.00 1016 10 16 0.00 0.00
8:53 am 08:53 Mostly Cloudy 40 4.4 34 1.1 79 79 N 7 11 29.99 1016 10 16 0.00 0.00
9:53 am 09:53 Mostly Cloudy 41 5 33 0.6 73 73 NNE 3 6 29.99 1016 10 16 0.00 0.00
10:53 am 10:53 Partly Cloudy 48 8.9 35 1.7 61 61 N 6 9 29.99 1016 10 16 0.00 0.00
11:53 am 11:53 Mostly Sunny 50 10 34 1.1 54 54 ENE 3 6 29.99 1016 10 16 0.00 0.00
12:53 pm 12:53 Mostly Sunny 53 11.7 34 1.1 48 48 NNE 6 9 29.98 1015 10 16 0.00 0.00
1:53 pm 13:53 Partly Cloudy 55 12.8 33 0.6 44 44 VRB 5 7 29.97 1015 10 16 0.00 0.00
2:53 pm 14:53 Mostly Cloudy 56 13.3 32 0 40 40 VRB 6 9 29.96 1015 10 16 0.00 0.00
3:53 pm 15:53 Mostly Cloudy 59 15 31 -0.6 35 35 NNE 8 13 29.95 1014 10 16 0.00 0.00
4:53 pm 16:53 Mostly Cloudy 58 14.4 29 -1.7 33 33 NNE 9 15 29.95 1014 10 16 0.00 0.00
5:53 pm 17:53 Partly Cloudy 56 13.3 33 0.6 42 42 SE 7 11 29.95 1014 10 16 0.00 0.00
6:53 pm 18:53 Mostly Sunny 53 11.7 37 2.8 55 55 SSE 6 9 29.97 1015 10 16 0.00 0.00
7:53 pm 19:53 Mostly Clear 50 10 37 2.8 61 61 VRB 3 6 29.98 1015 10 16 0.00 0.00
8:53 pm 20:53 Clear 47 8.3 36 2.2 66 66 SSE 5 7 30.01 1016 10 16 0.00 0.00
9:53 pm 21:53 Clear 47 8.3 36 2.2 66 66 S 5 7 30.02 1017 10 16 0.00 0.00
10:53 pm 22:53 Clear 47 8.3 36 2.2 66 66 Calm 30.03 1017 10 16 0.00 0.00
11:53 pm 23:53 Clear 44 6.7 35 1.7 71 71 Calm 30.04 1017 10 16 0.00 0.00

Powered by AerisWeather